timestamp,surface_pressure_avg,surface_temp_avg,battery_voltage,lat,long
2023-09-27 00:09:00+00:00,292.818,11.7,11.86,47.84626,-54.09684
2023-09-27 00:19:01+00:00,283.8613,11.5,11.86,47.84626,-54.09684
2023-09-27 00:29:01+00:00,276.7731,11.5,11.86,47.84626,-54.09684
2023-09-27 00:39:01+00:00,268.8448,11.5,11.86,47.84626,-54.09684
2023-09-27 00:49:01+00:00,259.3597,11.5,11.86,47.84626,-54.09684
2023-09-27 00:59:01+00:00,252.0231,11.5,11.86,47.84626,-54.09684
2023-09-27 01:09:01+00:00,246.3614,11.55,11.86,47.84626,-54.09684
2023-09-27 01:19:00+00:00,238.7331,11.86,11.86,47.84626,-54.09684
2023-09-27 01:29:00+00:00,229.8914,11.8,11.86,47.84626,-54.09684
2023-09-27 01:39:00+00:00,224.5131,11.6,11.86,47.84626,-54.09684
2023-09-27 01:49:00+00:00,221.1297,11.6,11.86,47.84626,-54.09684
2023-09-27 01:59:00+00:00,215.543,11.6,11.86,47.84626,-54.09684
2023-09-27 02:09:00+00:00,209.0731,11.6,11.86,47.84626,-54.09684
2023-09-27 02:19:00+00:00,205.2248,11.6,11.86,47.84626,-54.09684
2023-09-27 02:29:00+00:00,202.2398,11.66,11.86,47.84626,-54.09684
2023-09-27 02:39:00+00:00,198.2598,11.69,11.86,47.84626,-54.09684
2023-09-27 02:49:00+00:00,195.7898,11.7,11.86,47.84626,-54.09684
2023-09-27 02:59:00+00:00,193.3364,11.7,11.86,47.84626,-54.09684
2023-09-27 03:09:00+00:00,191.558,11.7,11.86,47.84626,-54.09684
2023-09-27 03:19:00+00:00,192.8965,11.7,11.86,47.84626,-54.09684
2023-09-27 03:29:00+00:00,192.2698,11.7,11.86,47.84626,-54.09684
2023-09-27 03:39:00+00:00,189.5848,11.7,11.86,47.84626,-54.09684
2023-09-27 03:49:00+00:00,189.9932,11.7,11.86,47.84626,-54.09684
2023-09-27 03:59:00+00:00,191.0948,11.69,11.86,47.84626,-54.09684
2023-09-27 04:09:00+00:00,191.6313,11.64,11.86,47.84626,-54.09684
2023-09-27 04:19:00+00:00,192.5999,11.64,11.86,47.84626,-54.09684
2023-09-27 04:29:00+00:00,192.0265,11.63,11.86,47.84626,-54.09684
2023-09-27 04:39:00+00:00,193.1948,11.62,11.86,47.84626,-54.09684
2023-09-27 04:49:00+00:00,196.8748,11.61,11.86,47.84626,-54.09684
2023-09-27 04:59:00+00:00,200.5698,11.6,11.86,47.84626,-54.09684
2023-09-27 05:09:00+00:00,203.7581,11.6,11.86,47.84626,-54.09684
2023-09-27 05:19:00+00:00,206.3265,11.6,11.77,47.84626,-54.09684
2023-09-27 05:29:00+00:00,208.3531,11.62,11.77,47.84626,-54.09684
2023-09-27 05:39:00+00:00,211.8164,11.63,11.77,47.84626,-54.09684
2023-09-27 05:49:00+00:00,216.9731,11.64,11.77,47.84626,-54.09684
2023-09-27 05:59:00+00:00,222.6564,11.66,11.77,47.84626,-54.09684
2023-09-27 06:09:00+00:00,227.6648,11.6,11.77,47.84626,-54.09684
2023-09-27 06:19:00+00:00,233.4981,11.6,11.77,47.84626,-54.09684
2023-09-27 06:29:00+00:00,238.5098,11.6,11.77,47.84626,-54.09684
2023-09-27 06:39:00+00:00,244.8214,11.6,11.77,47.84626,-54.09684
2023-09-27 06:49:00+00:00,253.5098,11.6,11.77,47.84626,-54.09684
2023-09-27 06:59:00+00:00,260.2498,11.5,11.77,47.84626,-54.09684
2023-09-27 07:09:00+00:00,265.2097,11.37,11.77,47.84626,-54.09684
2023-09-27 07:19:00+00:00,271.9014,11.1,11.77,47.84626,-54.09684
2023-09-27 07:29:00+00:00,280.2114,10.9,11.77,47.84626,-54.09684
2023-09-27 07:39:00+00:00,285.2164,10.84,11.77,47.84626,-54.09684
2023-09-27 07:49:00+00:00,288.6564,10.7,11.77,47.84626,-54.09684
2023-09-27 07:59:00+00:00,295.113,10.6,11.77,47.84626,-54.09684
2023-09-27 08:09:00+00:00,301.7496,10.48,11.77,47.84626,-54.09684
2023-09-27 08:19:00+00:00,305.7464,10.38,11.77,47.84626,-54.09684
2023-09-27 08:29:00+00:00,309.5214,10.4,11.77,47.84626,-54.09684
2023-09-27 08:39:00+00:00,314.693,10.4,11.77,47.84626,-54.09684
2023-09-27 08:49:00+00:00,317.3848,10.3,11.77,47.84626,-54.09684
2023-09-27 08:59:00+00:00,317.3731,10.0,11.77,47.84626,-54.09684
2023-09-27 09:09:00+00:00,320.483,9.9,11.77,47.84626,-54.09684
2023-09-27 09:19:00+00:00,325.343,9.88,11.77,47.84626,-54.09684
2023-09-27 09:29:00+00:00,326.5996,9.7,11.77,47.84626,-54.09684
2023-09-27 09:39:00+00:00,327.4798,9.5,11.77,47.84626,-54.09684
2023-09-27 09:49:00+00:00,331.1981,9.5,11.77,47.84626,-54.09684
2023-09-27 09:59:00+00:00,332.2462,9.56,11.77,47.84626,-54.09684
2023-09-27 10:09:00+00:00,330.3163,9.5,11.77,47.84626,-54.09684
2023-09-27 10:19:00+00:00,329.3745,9.4,11.77,47.84626,-54.09684
2023-09-27 10:29:00+00:00,329.7863,9.4,11.77,47.84626,-54.09684
2023-09-27 10:39:00+00:00,326.3779,9.59,11.77,47.84626,-54.09684
2023-09-27 10:49:00+00:00,322.0547,9.4,11.77,47.84626,-54.09684
2023-09-27 10:59:00+00:00,318.8181,9.3,11.77,47.84626,-54.09684
2023-09-27 11:09:00+00:00,315.6214,9.42,11.77,47.84626,-54.09684
2023-09-27 11:19:00+00:00,309.4813,9.6,11.86,47.84626,-54.09684
2023-09-27 11:29:00+00:00,303.0764,9.6,11.86,47.84626,-54.09684
2023-09-27 11:39:00+00:00,299.1313,9.6,11.86,47.84626,-54.09684
2023-09-27 11:49:00+00:00,295.158,9.6,11.86,47.84626,-54.09684
2023-09-27 11:59:00+00:00,286.5264,9.63,11.86,47.84626,-54.09684
2023-09-27 12:09:00+00:00,276.5647,9.6,11.86,47.84626,-54.09684
2023-09-27 12:19:00+00:00,270.8314,9.6,11.93,47.84626,-54.09684
2023-09-27 12:29:00+00:00,264.4948,9.6,11.93,47.84626,-54.09684
2023-09-27 12:39:00+00:00,256.5531,9.61,11.93,47.84626,-54.09684
2023-09-27 12:49:00+00:00,248.5281,9.67,11.93,47.84626,-54.09684
2023-09-27 12:59:00+00:00,241.7164,9.69,11.93,47.84626,-54.09684
2023-09-27 13:09:00+00:00,231.8564,9.7,11.93,47.84626,-54.09684
2023-09-27 13:19:00+00:00,224.0198,9.7,12.09,47.84626,-54.09684
2023-09-27 13:29:00+00:00,219.0997,9.7,12.09,47.84626,-54.09684
2023-09-27 13:39:00+00:00,213.2564,9.7,12.09,47.84626,-54.09684
2023-09-27 13:49:00+00:00,205.5331,9.67,12.09,47.84626,-54.09684
2023-09-27 13:59:00+00:00,201.3665,9.66,12.09,47.84626,-54.09684
2023-09-27 14:09:00+00:00,197.1231,9.69,12.09,47.84626,-54.09684
2023-09-27 14:19:00+00:00,189.7315,9.7,12.09,47.84626,-54.09684
2023-09-27 14:29:00+00:00,184.4815,9.7,12.09,47.84626,-54.09684
2023-09-27 14:39:00+00:00,182.9314,9.7,12.09,47.84626,-54.09684
2023-09-27 14:49:00+00:00,179.5448,9.68,12.09,47.84626,-54.09684
2023-09-27 14:59:00+00:00,173.7314,9.65,12.09,47.84626,-54.09684
2023-09-27 15:09:00+00:00,172.5648,9.6,12.09,47.84626,-54.09684
2023-09-27 15:19:00+00:00,172.2348,9.6,12.09,47.84626,-54.09684
2023-09-27 15:29:00+00:00,165.8565,9.6,12.09,47.84626,-54.09684
2023-09-27 15:39:00+00:00,162.9499,9.6,12.09,47.84626,-54.09684
2023-09-27 15:49:00+00:00,164.0981,9.6,12.09,47.84626,-54.09684
2023-09-27 15:59:00+00:00,162.0315,9.59,12.09,47.84626,-54.09684
2023-09-27 16:09:00+00:00,159.4199,9.53,12.09,47.84626,-54.09684
2023-09-27 16:19:00+00:00,162.4615,9.5,12.09,47.84626,-54.09684
2023-09-27 16:29:00+00:00,166.8782,9.5,12.09,47.84626,-54.09684
2023-09-27 16:39:00+00:00,166.2881,9.5,12.09,47.84626,-54.09684
2023-09-27 16:49:00+00:00,167.4515,9.49,12.09,47.84626,-54.09684
2023-09-27 16:59:00+00:00,172.4865,9.45,12.09,47.84626,-54.09684
2023-09-27 17:09:00+00:00,176.7249,9.4,12.09,47.84626,-54.09684
2023-09-27 17:19:00+00:00,179.8481,9.4,12.01,47.84626,-54.09684
2023-09-27 17:29:00+00:00,184.0165,9.4,12.01,47.84626,-54.09684
2023-09-27 17:39:00+00:00,190.3048,9.3,12.01,47.84626,-54.09684
2023-09-27 17:49:00+00:00,195.8415,9.3,12.01,47.84626,-54.09684
2023-09-27 17:59:00+00:00,201.7748,9.2,12.01,47.84626,-54.09684
2023-09-27 18:09:00+00:00,208.0731,9.2,12.01,47.84626,-54.09684
2023-09-27 18:19:00+00:00,212.7148,9.18,11.93,47.84626,-54.09684
2023-09-27 18:29:00+00:00,217.4047,9.1,11.93,47.84626,-54.09684
2023-09-27 18:39:00+00:00,225.5898,9.1,11.93,47.84626,-54.09684
2023-09-27 18:49:00+00:00,232.6714,9.1,11.93,47.84626,-54.09684
2023-09-27 18:59:00+00:00,239.1765,9.19,11.93,47.84626,-54.09684
2023-09-27 19:09:00+00:00,247.3597,9.2,11.93,47.84626,-54.09684
2023-09-27 19:19:00+00:00,257.3931,9.2,11.93,47.84626,-54.09684
2023-09-27 19:29:00+00:00,265.8597,9.2,11.93,47.84626,-54.09684
2023-09-27 19:39:00+00:00,275.5514,9.2,11.93,47.84626,-54.09684
2023-09-27 19:49:00+00:00,285.6781,9.0,11.93,47.84626,-54.09684
2023-09-27 19:59:00+00:00,296.0881,9.0,11.93,47.84626,-54.09684
2023-09-27 20:09:00+00:00,302.5947,8.9,11.93,47.84626,-54.09684
2023-09-27 20:19:00+00:00,310.6331,8.8,11.86,47.84626,-54.09684
2023-09-27 20:29:00+00:00,316.9764,8.7,11.86,47.84626,-54.09684
2023-09-27 20:39:00+00:00,324.1296,8.65,11.86,47.84626,-54.09684
2023-09-27 20:49:00+00:00,330.7646,8.67,11.86,47.84626,-54.09684
2023-09-27 20:59:00+00:00,339.2664,8.79,11.86,47.84626,-54.09684
2023-09-27 21:09:00+00:00,342.0012,8.93,11.86,47.84626,-54.09684
2023-09-27 21:19:01+00:00,346.658,9.0,11.86,47.84626,-54.09684
2023-09-27 21:29:01+00:00,353.0963,9.02,11.86,47.84626,-54.09684
2023-09-27 21:39:01+00:00,357.0864,9.0,11.86,47.84626,-54.09684
2023-09-27 21:49:01+00:00,356.7128,9.02,11.86,47.84626,-54.09684
2023-09-27 21:59:01+00:00,359.8797,9.1,11.86,47.84626,-54.09684
2023-09-27 22:09:01+00:00,362.1578,9.1,11.86,47.84626,-54.09684
2023-09-27 22:19:01+00:00,361.2612,9.1,11.86,47.84626,-54.09684
2023-09-27 22:29:01+00:00,364.5713,9.17,11.86,47.84626,-54.09684
2023-09-27 22:39:01+00:00,369.0428,9.2,11.86,47.84626,-54.09684
2023-09-27 22:49:01+00:00,367.7078,9.2,11.86,47.84626,-54.09684
2023-09-27 22:59:01+00:00,364.1562,9.2,11.86,47.84626,-54.09684
2023-09-27 23:09:01+00:00,362.8229,9.2,11.86,47.84626,-54.09684
2023-09-27 23:19:00+00:00,359.9996,9.22,11.86,47.84626,-54.09684
2023-09-27 23:29:00+00:00,353.6396,9.32,11.86,47.84626,-54.09684
2023-09-27 23:39:00+00:00,347.8063,9.48,11.86,47.84626,-54.09684
2023-09-27 23:49:00+00:00,344.5313,9.61,11.86,47.84626,-54.09684
2023-09-27 23:59:00+00:00,340.0646,9.7,11.86,47.84626,-54.09684
